STARLINK-35725, 67565

Orbit data source: Space-Track

STARLINK-35725, 67565 is a payload satellite owned by SpaceX/Seattle (US) in SSO that was launched on Sun, 25 Jan 2026 UTC via an FALCON 9 launch vehicle from the Air Force Western Test Range (AFWTR). Payload-class satellites include a variety of spacecraft equipped with specific instruments for various scientific and technological missions. These include communications satellites like Starlink; space stations such as the ISS; scientific satellites like the Hubble; Earth observation satellites from companies like Planet Labs, Umbra, and HawkEye 360; GPS; miniature CubeSats for education and research; and military/defense satellites.

Loading next visibility...
Identifier
67565, 2026-016E
Orbit
SSO
Country
Flag of USUS
Related business
Manufacturer
SpaceX/Seattle
Mission
Operational Commercial Communications
Bus & Motor
STARLINK V2MO, Unknown motor
Mass
575 kg wet, ~530 kg dry
Launch date (UTC)
2026-01-25 (5 months ago)
Launch vehicle
FALCON 9
Launch site
Air Force Western Test Range (AFWTR)
Object type
Payload
Rocket body
Debris
Shape & HBR
Box + 2 Pan, 17.7 m
Radar Cross Section
36.964 m², Large (>1 m²)

Expand to show TLE details & history
Last TLE update: 23 hours ago

TLE from 23 hours ago
0 STARLINK-35725
1 67565U 26016E   26170.87866482  .00014708  00000-0  45678-3 0  9992
2 67565  97.2840 230.8252 0000861  96.0784 264.0557 15.33460954 22522
Epoch: 2026-06-19T21:05Z
TLE epoch observation values (Epoch: 2026-06-19T21:05:16.640Z)
Latitude
-0.00001°
Longitude
6.40455°
Altitude
468.669 km
Speed
7.632 km/s
True Right ascension
15h 23m 18s
True Declination
0° 00' 00"
Sunlit
Object was in full shadow at epoch
Visualization orbit readout
Latitude
Unknown
Longitude
Unknown
Altitude
Unknown
Speed
Unknown
Apparent Right ascension
Unknown
Apparent Declination
Unknown
Sunlit
N/A
Visualization observer readout
Local Sidereal Time
07:24:11
Azimuth
Unknown
Elevation
Unknown
Doppler factor
Unknown
Orbital elements
Apogee altitude
463.027 km
Perigee altitude
461.849 km
Semi-major axis
6,840.575 km
Eccentricity
0.00009
Inclination
97.284°
RAAN
230.8252°
Arg. of periapsis
96.0784°
True anomaly
264.04589°
Mean anomaly
264.0557°
Eccentric anomaly
264.05079°
Mean motion
3.83623 °/min
Orbital period
93.84 mins
BSTAR
0.00045678
Loading maneuver chart data...
Computing Atmospheric mass density...
Loading historical data...
Loading historical data...
Loading historical data...
Loading historical data...
Loading historical data...
Loading historical data...
Loading historical data...

Documentation

Showing up to 5 results
|